Theta_e
331 331 332 331 329 327 324 322 321 321 319 319 319 319 317 316 317 316 316 319 320 318 318 318 318 318 318 318 318 319 320 321 323 324 326 327 329 329 330 329 329 330 331
332 331 330 328 324 323 322 319 320 317 316 317 316 317 317 316 315 314 312 313 318 318 316 315 315 314 314 314 314 315 317 318 319 321 321 324 325 326 328 329 329 329 330
329 326 322 320 319 319 316 315 315 315 313 313 310 310 310 309 307 308 308 309 310 315 313 311 310 310 310 310 311 312 313 314 316 317 319 319 321 321 323 324 326 329 329
323 322 319 316 316 315 314 313 312 309 308 307 305 305 306 305 305 305 306 305 307 309 310 309 308 309 309 307 309 310 312 313 313 314 314 315 316 318 318 319 321 323 326
320 317 317 316 316 314 314 311 308 307 304 303 302 301 303 303 304 305 304 306 307 307 306 312 312 311 306 305 308 308 309 311 311 310 310 310 311 313 315 316 317 319 322
318 317 316 314 314 312 310 309 306 305 303 302 302 301 301 302 302 302 303 307 305 306 305 303 302 302 309 306 307 306 307 307 307 308 308 308 308 308 309 310 312 315 317
317 316 315 314 312 309 307 306 303 301 300 301 298 297 297 299 298 299 299 299 301 304 305 304 302 300 299 307 304 304 304 305 306 305 305 306 306 306 306 308 309 310 314
315 314 313 311 310 307 305 304 302 300 299 300 295 295 291 293 296 298 298 298 298 298 299 299 299 299 298 298 301 305 302 303 303 303 303 302 304 304 305 305 306 308 309
314 312 311 309 307 305 303 302 301 300 296 297 298 293 290 288 292 295 296 296 296 295 298 298 297 297 298 299 299 301 299 298 299 301 301 301 301 302 303 304 304 305 307
312 311 308 306 305 305 303 302 302 299 298 295 296 299 295 293 289 288 292 295 295 295 294 294 296 297 297 296 300 300 299 297 296 297 299 300 300 301 301 302 303 303 304
312 310 307 306 304 305 304 303 303 301 298 296 295 294 293 293 292 289 286 289 292 293 293 293 293 292 294 294 294 298 300 298 296 296 297 298 299 299 300 301 301 302 303
306 306 306 305 305 304 303 303 300 300 298 297 296 295 293 291 290 289 287 287 287 290 291 291 291 291 293 294 298 301 299 297 297 296 296 296 297 298 299 299 300 301 301
304 304 304 303 302 302 302 302 301 299 298 296 295 295 295 294 294 292 290 286 285 287 287 289 290 290 293 292 295 298 299 298 298 298 295 295 295 295 296 297 298 299 299
304 304 303 302 301 301 300 300 300 299 298 296 296 295 295 295 293 292 289 285 281 284 286 285 288 289 289 289 293 298 294 296 296 296 296 294 294 294 294 295 296 296 297
301 300 299 299 298 298 298 298 296 297 296 295 294 295 294 294 294 292 290 288 284 280 282 285 284 287 288 288 290 289 289 294 296 294 294 295 295 295 295 295 295 295 295
299 298 298 297 297 297 297 296 295 296 295 295 295 293 292 292 291 290 288 287 286 284 281 284 285 286 287 290 290 288 288 293 293 294 293 293 294 294 295 294 294 293 293
298 297 297 297 296 296 296 295 295 294 293 293 291 291 291 291 290 288 288 287 286 286 282 284 286 286 285 285 286 287 288 287 287 291 292 292 292 292 293 294 293 292 292
298 297 297 297 296 296 296 294 293 293 292 290 290 291 290 291 288 287 286 285 284 284 282 280 282 283 283 284 284 284 286 287 286 289 291 292 292 292 292 292 292 292 292
297 296 296 296 296 294 293 293 292 292 290 291 291 290 289 287 286 285 283 282 282 283 282 280 279 282 282 282 282 283 283 284 287 290 290 291 291 291 291 292 292 292 291
296 296 296 296 295 292 293 292 292 291 289 289 290 289 289 287 282 281 281 279 281 279 279 279 278 279 279 281 281 280 281 282 282 286 288 288 290 290 291 291 291 291 291
296 296 295 294 294 293 293 290 290 288 289 289 289 289 287 286 287 283 280 279 279 278 278 277 277 278 278 279 279 280 280 281 282 283 283 284 285 286 286 289 290 292 292
295 295 294 293 292 293 289 288 287 286 287 286 285 285 285 287 285 285 285 284 282 277 277 277 277 277 278 278 280 281 279 278 276 282 281 281 283 284 286 287 290 289 289
294 294 292 291 291 291 288 287 285 285 284 284 284 283 284 285 284 281 282 282 281 282 281 279 277 278 279 279 280 278 277 277 277 280 281 279 282 281 284 287 289 290 290
292 292 289 290 290 290 288 286 285 283 283 284 283 283 282 282 279 279 278 277 277 279 280 280 279 279 279 279 279 279 279 279 280 281 283 278 281 281 281 282 289 290 290
291 290 290 289 288 287 287 286 284 282 283 282 283 283 283 281 280 281 278 276 276 277 281 282 281 281 282 283 283 281 278 278 276 280 283 282 280 280 281 281 283 289 290
290 290 288 288 288 287 286 285 284 281 280 281 282 282 281 279 280 279 274 273 273 276 276 276 277 279 281 281 283 282 281 279 278 276 281 281 281 281 278 282 284 284 283
Wind_Speed
3 1 3 4 5 4 6 5 6 6 6 6 6 5 5 5 6 4 3 5 4 5 6 8 9 11 12 14 14 14 14 14 14 13 13 13 13 12 7 7 6 7 7
4 5 5 6 5 5 5 5 5 4 4 5 6 6 6 5 5 6 4 1 5 6 8 9 10 12 13 14 15 16 15 15 14 13 13 16 16 14 14 10 8 7 8
5 6 4 5 4 5 5 4 4 5 5 5 6 7 6 6 6 7 6 5 2 9 9 8 9 12 12 12 15 16 16 15 14 13 15 16 17 16 18 18 15 12 8
7 5 4 3 2 1 1 3 5 5 5 5 4 5 5 6 8 8 5 5 3 5 7 7 6 13 12 9 14 15 16 16 16 17 16 16 17 17 18 18 20 17 16
3 3 4 3 5 2 4 5 5 4 4 5 6 5 5 5 6 8 8 6 6 1 3 3 7 9 6 5 13 11 13 15 17 17 16 16 16 17 17 18 19 20 19
2 4 5 3 3 3 4 4 3 4 4 4 7 7 5 4 7 8 11 5 3 5 3 3 3 1 7 12 15 6 9 12 14 16 17 17 16 17 18 17 18 20 21
4 4 4 4 4 4 4 3 3 4 4 5 4 6 4 7 7 6 5 6 9 10 3 2 3 2 2 8 4 4 5 9 12 14 15 16 17 16 17 18 18 18 19
3 3 3 4 5 4 4 4 4 3 3 5 5 5 6 6 5 8 5 5 6 5 9 7 5 5 3 2 7 14 6 8 10 12 14 16 17 17 17 17 19 19 19
3 3 4 4 4 3 3 3 3 4 3 4 5 3 7 5 8 4 9 5 7 5 6 8 7 6 7 4 5 5 6 5 7 12 14 16 18 18 18 18 18 18 19
3 4 3 3 2 2 3 3 2 2 2 4 3 5 5 5 6 7 3 7 6 8 6 5 5 5 5 4 4 5 10 5 2 5 10 16 18 18 20 20 19 19 18
4 5 3 4 2 2 4 4 4 3 2 3 3 3 3 4 4 4 6 4 5 4 6 5 5 4 6 6 5 4 6 6 4 4 10 15 18 19 19 22 21 20 20
2 1 1 3 3 4 4 3 2 3 3 3 4 3 2 2 4 3 4 4 5 5 4 5 5 5 5 6 5 8 5 7 9 10 13 13 15 17 20 22 23 22 21
3 4 5 5 3 4 6 6 5 2 4 3 4 4 3 4 3 3 2 4 4 4 4 4 4 5 6 4 4 8 11 11 11 10 9 13 13 15 19 22 24 23 23
3 5 5 5 6 6 6 6 4 3 4 3 5 5 4 4 4 3 3 2 4 5 5 7 3 5 4 5 5 8 3 7 9 9 10 12 17 20 21 22 23 23 22
4 5 5 5 6 6 7 7 4 5 2 2 3 4 4 4 3 4 2 2 2 7 9 7 5 5 4 4 6 7 6 9 10 10 13 17 19 22 23 22 20 21 21
3 4 5 5 6 6 6 7 6 3 3 3 4 4 4 3 3 3 2 3 3 5 11 5 6 5 6 6 8 7 9 16 15 15 13 17 17 18 20 21 18 18 20
3 4 5 6 6 6 7 6 6 5 6 6 5 5 4 4 3 4 4 4 5 6 8 7 6 6 5 6 5 5 8 9 9 15 13 16 16 16 15 13 16 18 19
3 4 5 6 6 6 8 7 7 7 7 6 6 4 5 5 5 5 4 5 5 8 8 13 10 9 7 4 4 7 8 9 9 15 19 19 18 15 14 16 18 16 19
4 4 6 6 5 5 6 6 4 5 5 5 5 4 4 5 5 3 5 5 6 7 8 9 11 9 6 5 6 6 8 7 8 17 17 13 15 12 10 13 16 20 20
4 5 7 6 4 3 5 5 5 4 5 5 5 5 5 4 5 4 5 5 6 6 7 7 10 9 7 7 6 7 7 5 7 8 12 14 16 17 16 18 21 21 22
5 6 6 4 4 3 5 3 5 4 4 5 6 6 3 2 3 5 2 4 5 4 6 8 9 9 8 8 9 8 8 7 8 6 7 7 6 8 7 12 14 12 19
5 6 3 4 4 5 7 3 2 3 5 6 6 4 4 7 7 8 3 5 5 6 9 7 9 10 10 10 8 7 7 8 10 6 3 10 4 7 7 6 11 4 13
6 4 3 3 5 6 7 2 2 2 4 6 6 4 5 6 6 5 7 9 10 16 12 10 11 10 10 8 8 10 10 10 10 10 9 12 6 8 6 8 14 11 12
5 2 1 5 4 2 10 7 6 4 5 6 4 5 6 4 5 4 5 5 7 9 9 8 7 9 9 10 10 10 12 12 11 11 10 9 7 8 5 5 14 18 14
9 5 1 4 5 6 10 9 5 3 4 4 5 7 6 4 5 7 5 6 9 9 12 17 20 21 20 21 18 9 9 8 10 8 5 3 4 6 5 5 5 15 16
10 3 4 5 2 2 11 10 6 2 2 2 4 6 8 6 5 6 3 3 7 8 9 11 10 12 12 10 15 7 6 7 6 8 2 5 5 3 4 2 3 6 5
Wind_Direction
58 343 296 352 338 22 22 16 30 12 351 0 346 343 348 333 310 300 325 138 95 73 50 35 29 21 8 2 1 360 0 360 353 351 351 346 342 323 288 289 288 289 293
42 41 12 32 5 17 19 14 10 10 322 340 328 326 330 317 324 339 338 342 144 97 77 56 36 21 9 357 356 354 353 353 351 349 349 3 355 345 347 310 290 285 285
42 61 48 42 23 27 22 357 355 345 3 352 338 336 327 346 347 337 327 300 130 110 102 76 42 14 5 359 354 351 349 347 348 337 358 355 351 349 355 349 350 316 282
38 48 85 57 332 343 262 27 24 7 351 343 332 313 335 355 333 297 301 339 318 134 135 124 64 9 356 356 354 358 351 357 360 352 354 342 345 344 347 346 342 334 336
95 182 100 71 323 25 38 34 17 354 343 326 319 334 351 327 304 328 315 323 282 140 78 159 30 35 61 359 351 3 1 4 360 358 354 350 343 339 347 344 341 336 324
123 17 114 124 1 18 45 38 8 356 324 326 328 325 317 314 316 305 281 273 304 97 95 55 354 7 351 333 340 6 0 358 2 358 354 352 350 345 338 332 328 329 326
85 59 16 39 65 32 8 16 32 341 327 330 349 329 315 297 341 317 24 357 352 346 0 13 19 17 320 326 341 294 358 11 7 356 354 352 349 346 345 341 336 325 319
60 74 57 19 36 18 344 33 16 337 344 5 328 316 323 320 290 339 342 348 25 360 346 339 349 325 315 334 358 14 62 8 354 352 354 349 343 340 340 340 338 334 322
81 37 37 39 33 16 360 357 332 354 342 321 304 316 313 303 323 331 335 359 338 344 354 1 333 359 26 359 22 84 76 50 2 339 341 334 332 331 331 331 331 335 332
93 23 9 19 355 312 299 275 312 304 299 291 319 316 337 324 329 324 357 336 346 342 328 325 330 347 340 305 297 166 174 183 298 314 321 318 320 320 320 320 320 323 326
208 182 212 240 231 259 268 271 276 25 330 295 281 300 308 316 308 311 310 328 315 310 318 316 342 326 308 289 283 282 215 198 182 260 297 305 308 310 311 311 310 310 313
338 259 346 31 13 344 327 315 259 249 287 300 293 298 295 272 281 280 287 303 299 294 300 319 304 291 286 279 267 347 348 195 223 266 294 309 310 307 308 308 305 306 306
355 4 22 1 341 316 306 296 281 266 269 275 280 271 272 263 281 278 286 278 277 295 292 287 298 301 299 320 270 260 268 249 260 285 276 300 297 293 292 295 296 297 301
344 359 1 356 337 323 319 313 301 258 228 258 280 274 268 255 246 253 251 251 301 293 299 286 293 286 309 298 313 323 263 300 292 283 293 289 289 289 293 286 283 287 295
342 16 351 334 321 316 309 305 294 290 307 332 304 292 277 276 263 260 293 307 262 301 295 299 287 290 309 325 317 318 304 303 314 307 294 288 292 292 290 278 272 280 288
9 330 337 328 313 304 307 307 297 344 337 284 262 275 271 275 308 309 318 298 298 284 289 289 295 303 291 305 308 336 323 321 312 305 294 287 291 303 294 278 262 271 280
339 341 329 322 307 312 303 314 339 332 344 9 356 337 347 348 336 322 323 296 287 279 289 300 298 303 304 292 332 321 314 305 293 296 298 300 297 295 291 260 250 258 270
334 331 324 305 305 335 8 356 350 340 333 344 331 342 321 320 312 307 291 313 344 340 325 314 308 308 301 312 308 303 301 298 296 293 292 288 289 274 243 235 244 251 260
339 328 309 293 305 30 346 319 303 302 339 298 300 302 301 302 302 352 11 346 336 325 324 321 312 309 310 329 315 303 293 292 294 301 293 293 298 308 284 284 271 254 252
316 299 282 290 9 21 287 316 317 248 255 282 286 277 287 300 39 348 335 340 313 321 311 314 311 306 314 314 306 306 302 292 294 307 307 295 294 301 284 253 254 256 256
281 272 290 14 343 292 270 303 264 329 307 306 291 302 339 50 271 86 299 280 323 313 307 300 300 304 304 306 305 301 307 312 300 290 296 292 295 294 295 291 284 295 272
279 284 9 1 317 295 131 118 298 311 333 318 310 329 345 320 118 204 320 17 287 279 290 292 287 291 295 297 308 319 317 315 308 280 299 297 273 284 280 279 276 240 305
280 294 22 297 281 297 142 127 257 290 326 292 294 333 333 317 44 36 358 343 325 308 301 291 290 282 297 310 311 311 305 297 291 294 299 288 278 268 257 270 280 264 247
321 312 333 303 286 290 149 180 229 275 290 293 351 346 320 325 84 35 339 322 310 301 301 296 310 302 297 302 294 289 289 288 284 282 276 269 279 273 265 250 261 270 254
319 301 328 356 318 134 177 192 217 291 305 337 348 310 298 306 76 16 351 316 309 304 305 328 322 309 304 300 292 285 276 278 287 288 292 288 271 266 263 261 251 259 255
287 40 19 338 358 175 196 199 208 254 301 294 278 292 78 75 34 340 299 287 300 303 327 309 303 301 296 295 303 298 299 301 310 308 224 324 297 291 308 342 330 286 255